CAPE
1584 1525 1643 2105 2177 2219 2128 2481 2392 2419 2467 2412 2339 1948 2337 2146 2008 2206 2459 2435 2658 2692 2634 2860 2854 2799 2736 2798 2741 2723 2702 2717 2851 2831 2865 2810 2886 2907 3008 2919 3057 3050 3015 3129 2941 2991 3064 3064 3047 2851 2750 3039 2942 2865 2974 3064 2802 2447 2788 2812 2916 3024 3082 3044 3104 3123 3134 3083 3108 3204 3343 3449 3359 2994 3062 2989 2775 2901 3086 2837 3263 3080 3068 2893 2910
1559 1588 1635 2022 2083 2279 2228 2476 2355 2386 2402 2487 2378 2226 2229 2237 2176 2067 2161 2460 2476 2527 2781 2870 2824 2882 2784 2810 2890 2990 3036 3106 2931 2902 2841 2731 2768 2647 2835 2923 2904 3035 2810 3038 2978 3136 3047 2955 3095 3248 3218 3241 3362 3385 3310 3131 3348 3126 2762 2560 2694 2743 2767 2908 2931 2940 2910 3082 3084 3058 3190 3268 3265 3287 2790 2498 2472 2907 3020 3130 3220 3098 2949 2778 3046
1624 1629 1636 2084 2021 2190 2310 2445 2332 2440 2665 2557 2390 2404 2555 2660 2126 1819 2340 2378 2379 2480 2469 2826 2842 2910 2932 3000 2904 3022 2818 2844 2914 2844 2773 2615 2584 2576 2540 2672 2793 2705 2748 2968 3069 3258 3234 3162 3118 3004 2887 3042 3291 3411 3311 3202 3309 3400 3426 3324 3036 2516 2376 2575 2712 2790 2696 2814 2789 2827 3006 3046 3158 3196 3167 2869 2413 2760 2868 2970 2947 2984 2806 2717 2609
1707 1656 1637 2165 2162 2135 2142 2407 2491 2500 2533 2474 2570 2393 2462 2574 2513 2438 2493 2413 2110 2482 2531 2602 2922 2934 2997 3037 2929 3068 3049 2782 2799 2723 2719 2653 2666 2652 2653 2786 2983 2933 2923 2842 2726 2703 2936 2918 3072 3118 3159 3110 3179 3426 3296 3159 3055 3244 3263 3370 3510 3324 3129 2604 2441 2747 2916 2890 2801 2805 2884 2716 3062 3108 3002 2769 2643 2694 2795 2808 2805 2806 2839 2878 2858
1944 1780 1709 2211 2313 2183 2404 2397 2552 2597 2369 2354 2482 2541 2601 2610 2086 2918 2649 2210 2209 2146 2452 2681 2861 2658 2909 3044 2948 2984 3231 3100 2921 2929 2889 2877 2734 2751 2877 3063 3191 3154 2973 2897 2753 2786 2813 2948 2984 2966 2976 3087 3081 3243 3154 3014 3021 3205 3190 3105 3132 3193 3114 3071 2525 2345 2890 2768 2591 2334 1935 2220 2801 3023 2979 2932 2876 2771 2740 2840 2867 2837 2759 2916 2892
1958 1962 1942 2213 2507 2362 2446 2576 2694 2577 2458 2463 2465 2643 2642 2602 2314 2677 2641 2096 1884 1925 2220 2650 2948 3007 2869 2811 3030 3135 3172 3116 2856 3087 3073 2890 2921 2862 2928 2734 2659 2684 2563 2597 2561 2522 2648 2659 2774 2770 2788 3089 3119 3046 2906 2895 2947 3002 3085 3172 3262 3250 3188 3154 2938 2283 2545 2616 2519 1755 1808 1934 2512 2586 2780 2826 2781 2703 2768 2842 2755 2726 2812 2849 2721
1992 2024 1981 2156 2330 2409 2377 2320 2645 2658 2594 2581 2597 2555 2581 2496 2435 2534 2424 2073 1727 1906 2133 2341 2586 2733 2716 2718 3073 2923 2873 2963 3052 3251 3227 3022 3054 2877 2704 2540 2581 2612 2587 2528 2543 2631 2832 2910 2761 2709 2799 2958 3061 3059 2984 2887 3088 2999 2790 2949 3066 3087 3032 3054 3006 2534 2772 2082 1601 1655 1778 1912 2154 2274 2511 2567 2600 2652 2649 2723 2774 2735 2838 2895 2894
2022 2048 2061 2163 2073 2433 2426 2478 2539 2764 2741 2644 2587 2536 2548 2521 2523 2603 2232 1984 2012 1942 2025 2251 2271 2410 2363 2643 3166 3090 3213 3188 3166 3148 3087 3068 3016 2997 2652 2626 2663 2616 2638 2674 2650 2623 2714 2844 2848 2837 2788 2837 2934 3103 3207 3066 2913 2886 3032 3015 3024 2835 2900 3214 3207 2944 2277 1579 1527 1656 1798 1855 2095 1991 2543 2282 2456 2575 2576 2555 2670 2639 2712 2748 2859
2038 2058 1996 1974 2284 2554 2518 2442 2380 2734 2730 2556 2557 2606 2524 2490 2524 2580 2338 2319 2216 1885 1946 2317 2486 2442 1784 2247 2752 3133 3262 3274 3325 3156 3040 3100 3082 2979 2850 2791 2730 2845 2939 3179 3357 3194 3124 3065 3112 3147 3011 2955 2834 2891 3041 3340 3315 3174 3070 3098 3043 3245 2848 2933 3252 3142 2471 1879 1655 1696 1697 1750 1825 2224 2800 2104 2490 2559 2526 2616 2758 2566 2630 2677 2763
2002 1953 1897 2054 2227 2506 2271 2440 2387 2414 2669 2643 2605 2528 2421 2439 2556 2546 2572 2472 2239 2213 2086 2660 2325 2458 2541 2614 2995 3292 3385 3479 3427 3251 3266 3089 3050 2962 2874 2869 3048 2958 3040 3178 3251 3327 3487 3552 3184 3038 2980 3040 3019 2971 2858 2775 2918 3076 3081 3228 3326 3420 3145 3050 3150 3288 1877 1960 1678 1640 1799 2433 2146 2364 2873 1860 2098 2268 2509 2439 2494 2413 2355 2448 2614
1945 1877 1915 2100 2246 2532 2621 2584 2589 2588 2538 2552 2444 2435 2404 2349 2442 2596 2725 2718 2260 2234 2211 2379 2637 2734 2714 3231 3092 3202 3353 3281 3405 3296 3063 3067 2931 2883 3043 3070 2996 2908 3011 3178 3204 2733 3551 3571 3333 3198 3037 2944 2901 2853 2977 3084 3139 2946 3348 3466 3391 3348 3538 3212 3492 2626 2004 1896 1668 1539 2514 2512 2354 2468 3007 1900 2088 2087 1996 2153 2029 2237 2194 2484 2055
1884 1876 1978 2133 2708 2667 2634 2615 2702 2699 2567 2471 2432 2468 2452 2465 2455 2493 2724 2585 2747 2776 2478 2408 2813 2910 2762 3020 3172 3242 3383 3447 3330 3107 3128 3082 3040 3076 3066 3023 3134 3298 3439 3555 3582 3607 3560 3459 3442 3274 3204 3131 3069 3261 3088 2935 2836 2591 3047 3434 3478 3405 3553 3727 3291 2243 1986 2091 2081 1962 2625 2634 2453 2749 2357 1924 1962 2061 1960 1958 2060 1923 1957 2067 2183
1840 1886 2007 2204 2524 2702 2718 2630 2826 2722 2495 2540 2584 2544 2590 2510 2493 2513 2691 2442 2624 2512 2783 2777 2864 2893 3031 3107 3365 3381 3425 3512 3376 3224 3233 3218 3090 3071 3068 3226 3209 3237 3527 3553 3611 3432 3376 3400 3258 3339 3354 3456 3436 3521 3714 3268 2860 2554 3222 3467 3486 3902 4221 4392 3330 2027 2064 2208 2712 3001 2641 2533 2758 3059 2481 2172 2152 2557 2668 2556 2308 2120 1916 2063 2001
1836 1885 2018 2322 2431 2518 2468 2292 2427 2786 2681 2550 2701 2680 2709 2626 2477 2513 2519 2598 2601 2680 2887 2943 2904 2848 3085 2990 3253 3479 3414 3419 3396 3260 3174 3182 3161 3110 3250 3410 3461 3468 3597 3492 3549 3413 3646 3742 3655 3524 3655 3688 3837 3898 4013 4118 3502 3427 3268 3644 3961 4494 4428 4396 3662 2034 2359 2464 3060 2751 2609 2919 2567 2976 2570 2488 2477 2458 2598 2658 2568 2586 2384 2052 2075
1803 1894 2105 2278 2582 2510 2536 2594 2833 2916 2689 2599 2637 2786 2747 2727 2532 2675 2718 2797 2783 2750 2738 2827 2890 2877 2846 2996 3310 3651 3479 3375 3292 3337 3221 3102 3185 3364 3557 3528 3392 3463 3420 3422 3478 3652 3553 3815 3773 3862 3982 4054 3977 4003 4183 4336 4338 4272 3979 4296 4511 4587 4397 4210 3514 2119 2327 2747 2836 2965 2391 2474 2859 2799 2314 2051 2020 2248 2492 2457 2443 2237 2323 2478 2850
1769 1908 2145 2231 2433 2519 2568 2709 2571 2976 2617 2728 2848 2886 2754 2469 2448 2521 2817 2817 2682 2672 2790 2568 2706 2872 2901 3026 3163 3518 3436 3457 3522 3433 3134 3200 3326 3515 3501 3485 3411 3458 3529 3547 3504 3504 3574 3673 3802 4020 4186 4174 4236 4230 4425 4443 4523 4648 4635 4495 4584 4631 5237 3897 2758 2070 2429 2705 2854 2644 2282 2449 2638 2348 2242 2145 2191 2429 2361 2436 2624 2216 2276 2088 2143
1689 2090 2144 2156 2392 2365 2512 2722 2684 2721 2689 2848 2879 2743 2512 2524 2584 2455 2743 2787 2862 2602 2794 2287 2626 2801 2869 3155 3155 3231 3431 3617 3514 3433 3398 3400 3546 3618 3624 3588 3351 3220 3668 3334 3536 3708 3874 3866 3954 4163 4287 4439 4607 4775 4829 4906 5110 5238 5099 4586 4611 4562 4900 3473 2430 2109 2253 2606 2781 2443 2190 2254 2872 2264 2220 2453 2405 2366 2651 2740 2656 2784 2758 2520 2252
1991 2072 2092 2191 2365 2405 2505 2598 2625 2601 2510 2892 2758 2670 2499 2513 2758 2638 2642 2821 2746 2753 2560 2588 2576 2773 2978 3115 3130 3227 3457 3727 3494 3516 3643 3558 3622 3421 3278 3390 3441 3632 3481 3679 3693 3688 3773 3795 3912 4213 4454 4624 4918 4953 4984 5182 5510 5463 5108 4990 4942 4461 4534 3207 2360 2216 2318 2911 2406 2506 2350 2660 2776 2587 2624 2730 2754 2773 2950 3176 3247 3274 3161 3031 3007
1939 2019 2071 2156 2330 2397 2458 2560 2332 2434 2401 2387 2425 2692 2486 2679 2578 2630 2743 2724 2623 2337 2566 2571 2683 2848 2976 3111 3080 3269 3399 3617 3551 3306 3543 3668 3683 3614 3563 3489 3407 3404 3359 3502 3403 3466 3683 3894 4097 4340 4612 4852 4957 5175 5370 5682 5825 5590 5094 4840 5012 4390 4200 2807 2159 2197 2497 2790 2178 2500 2364 2575 2900 2711 2596 3088 3192 3377 3542 3195 3425 3380 3191 3515 2834
1895 1949 2021 2143 2256 2365 2411 2518 2320 2392 2376 2306 2213 2433 2460 2672 2605 2587 2544 2647 2763 2697 2624 2607 2636 2816 2940 3180 3131 3118 3086 3443 3627 3537 3334 3353 3382 3188 3270 3701 3664 3486 3453 3442 3435 3526 3623 3669 4096 4467 4842 5136 5391 5628 5870 5859 5552 5579 4772 4977 4868 4310 3506 2007 1942 1971 2548 2517 2451 2439 2596 2838 3193 2776 2865 3176 3472 3459 3598 3386 3578 3561 3466 3339 3318
1891 1946 1959 2052 2189 2298 2351 2442 2265 2322 2336 2331 2238 2270 2566 2771 2561 2581 2639 2663 2536 2852 2801 2736 2731 2740 3204 2968 3718 3040 3143 3281 3252 3134 3602 4018 3456 3376 3578 3660 3747 3748 3616 3545 3364 3563 3764 4050 4379 4689 4870 5197 5416 5945 5338 5316 5191 5618 5074 5059 4672 3566 2586 2015 2038 2543 2512 2793 2903 2432 2839 3123 3352 2926 3056 3280 3416 3612 3589 3537 3491 3368 3301 3162 3035
1731 1845 1923 1981 2080 2221 2265 2310 2245 2226 2302 2252 2257 2221 2583 2576 2221 2334 2484 2727 2476 2586 2936 2765 3032 2481 3032 2917 2915 2946 2960 3057 3014 3948 3186 3515 3100 3091 3190 3316 3819 3974 3849 3762 3971 4082 4015 4084 4315 4574 4639 4919 5328 4185 4155 4390 5784 5902 5245 5099 3721 2804 1848 2025 2194 2496 2640 2760 3259 2722 3147 3569 3197 3184 3238 3373 3499 3683 3614 3548 3456 3438 3403 3262 3128
1496 1823 1862 1870 2024 2127 2170 2193 2207 2156 2254 2243 2164 2354 2187 2146 2125 2205 2328 2670 2839 3253 2560 2618 2540 2404 2623 2642 2706 2833 2849 2850 2931 3268 3790 3459 3453 3381 3739 3861 4136 4000 3461 3371 3376 3219 3488 3770 4133 4274 4532 4672 3762 3668 3841 5840 6114 5602 4829 3354 2678 2011 1900 2044 2154 2393 2614 2727 3290 3008 3375 3667 3458 3433 3403 3479 3563 3406 3476 3527 3276 3447 3439 3378 3288
1434 1652 1772 1920 1911 2052 2094 2109 2144 2130 2150 2164 2145 2127 2155 2105 2178 2155 2064 2388 2419 2236 2329 2281 2385 2466 2462 2686 2720 2690 2661 2683 2937 3330 3424 3198 3014 3144 3358 3554 3486 3298 2928 3324 2771 2675 3364 3160 3221 3684 3443 3312 3291 3502 4281 5543 4886 3608 2038 1446 1375 1411 1525 1654 2004 2257 2475 2752 3102 3267 3656 3855 3776 3129 2793 2897 3236 3153 3494 3636 3377 3403 3754 3568 3225
1326 1525 1754 1800 1858 1949 2016 2012 2059 2118 2115 2101 2088 2124 2119 2077 2102 2156 2251 2332 2128 2177 2190 2224 2323 2521 2562 2638 2534 2466 2497 2429 2252 2429 2796 2870 2856 2557 2415 2372 2152 1746 3028 1910 2001 1912 2128 2021 2235 2395 2208 2843 3370 3046 3449 4087 3054 1538 1099 1212 1341 1523 1712 1903 2017 2091 2120 2292 3191 3460 3838 4037 3952 3214 2971 2840 3181 3288 3346 3296 3412 3407 3520 3700 3142
1400 1419 1531 1771 1866 1871 1892 1941 1972 2047 2031 2048 2006 2152 2008 1987 2095 2124 2280 2218 2106 2059 2137 2065 2110 2377 2414 2400 2265 2353 2351 2270 2156 2404 2532 2647 2392 2433 2458 2368 2072 1793 2113 1931 1842 1863 1945 2122 2175 2029 2018 2432 3398 3072 2169 1772 1284 1178 1293 1380 1462 1629 1801 1912 2009 2065 2081 2123 2760 3280 3662 4082 4154 3608 3302 3286 3223 3311 3379 3174 3415 3297 3410 3510 2611
1419 1363 1459 1610 1631 1754 1802 1847 1904 1948 1917 1933 1924 1950 1950 1951 2074 2139 2228 2128 2053 1996 2008 1933 1894 1970 2120 2189 2193 2205 2121 2023 2170 2246 2254 2345 2413 2408 2499 2352 2076 2010 1922 1847 1779 1806 1908 2174 2003 1879 1252 2533 2366 1788 1482 1259 1285 1269 1383 1505 1588 1646 1747 1864 1964 2025 2085 2133 2294 2998 3580 4176 4348 4357 3821 3426 3607 3508 3443 3596 2979 2835 3228 3661 2525
1405 1370 1506 1551 1749 1623 1725 1782 1776 1807 1859 1861 1835 1878 1878 1877 2001 2155 2122 2094 1968 1932 1918 1840 1753 1820 1859 2017 2170 2044 1967 2061 2151 2145 2308 2457 2386 2384 2289 2116 1969 1907 1854 1749 1784 1786 1854 2082 1922 1187 1230 1684 1652 1229 1346 1304 1387 1334 1410 1496 1610 1676 1727 1812 1896 2000 2073 2119 2147 2750 3522 4229 4514 4749 4220 3631 3560 3780 3547 3334 3133 2860 3216 3671 2903
1488 1454 1515 1511 1520 1630 1655 1759 1739 1738 1740 1758 1764 1746 1756 1848 1893 1920 1987 2025 1835 1838 1826 1728 1689 1653 1694 1990 2267 2241 2363 2374 2364 2396 2473 2264 2146 1921 1948 1949 1910 1810 1722 1729 1790 1795 1992 2084 1757 1480 878 1127 1296 965 1143 1350 1436 1444 1425 1472 1562 1641 1689 1780 1878 1976 2036 2070 2137 2305 3279 4265 4646 4813 4523 4346 3847 3590 3840 3814 3500 3314 3323 3688 3343
1496 1546 1501 1518 1523 1641 1597 1567 1646 1670 1639 1632 1684 1668 1642 1660 1732 1921 1885 2230 1737 1641 1556 1436 1500 1575 1689 1928 2166 2594 2612 2625 2567 2511 2284 2076 1955 1700 1906 1858 1767 1694 1730 1764 1850 2045 2307 2345 1921 1495 653 774 1015 1475 1106 1209 1417 1501 1492 1497 1546 1596 1649 1715 1805 1892 1953 1994 2061 2128 3114 3919 4759 5022 5141 4538 3826 3941 3596 3753 3881 3657 3592 3613 3379
1455 1505 1401 1496 1660 1616 1536 1576 1476 1694 1487 1472 1560 1593 1539 1544 1594 1758 1766 1908 1752 1661 1465 1423 1453 1540 1635 1792 2029 2431 2688 2579 2563 2390 2108 1950 1844 1832 1810 1692 1613 1727 1781 1826 2026 2727 2636 2511 2094 1990 1813 955 619 1152 883 788 1058 1344 1591 1544 1517 1543 1567 1627 1700 1778 1827 1859 1896 1970 2334 3263 4331 5090 5212 5065 4592 4453 4008 3884 3850 3683 3742 3607 3702
1369 1402 1347 1412 1584 1577 1538 1567 1496 1591 1445 1389 1564 1474 1508 1464 1551 1654 1565 1701 1784 1645 1634 1522 1544 1592 1958 1894 1999 2039 2424 2490 2437 2203 1905 1788 1687 1750 1625 1588 1678 1767 1873 2076 2379 2717 2690 2512 2778 2574 2605 2180 1806 1275 1513 1050 754 688 888 1301 1492 1475 1471 1476 1510 1582 1642 1677 1717 1787 1952 2491 3292 4505 5156 5191 5165 4545 4210 3718 3836 3683 3813 3735 3908
1229 1288 1257 1260 1425 1529 1533 1548 1471 1554 1391 1336 1369 1390 1383 1340 1466 1548 1421 1541 1793 1765 1653 1593 1625 1700 1858 2008 1991 2013 2357 2177 2073 1847 2012 1642 1596 1568 1580 1815 1726 1888 2096 2637 2742 2092 2168 1935 1907 3027 2524 2760 1609 1493 2104 1277 1107 581 584 640 758 1224 1407 1399 1406 1403 1431 1483 1698 1842 1919 2252 2737 3293 4385 5217 5168 4860 4697 4464 4176 4276 4238 3892 4040
1067 1167 1207 1216 1349 1434 1540 1453 1482 1573 1492 1388 1386 1317 1312 1261 1387 1332 1439 1577 1590 1762 1814 1667 1776 1799 1884 1838 1949 1972 2313 1819 1618 1530 1540 1502 1506 1536 1638 1691 1928 2272 2711 2756 2395 2352 2124 1935 2361 2098 2952 2134 1534 1543 1068 1015 1328 1009 588 561 564 658 785 1107 1267 1337 1365 1378 1494 1758 1951 2012 2276 2818 3365 4075 5285 5518 4919 4829 4825 4622 4518 4222 4264
941 1027 1094 1143 1399 1328 1420 1375 1534 1475 1464 1422 1413 1318 1293 1256 1302 1199 1271 1472 1535 1645 1880 1781 1790 1798 1762 1784 1777 1764 2233 1764 1629 1592 1477 1410 1515 1848 1933 1867 2091 3243 2816 2954 2903 2466 1956 1821 2785 2152 1275 1555 2216 1917 1452 559 617 922 654 496 463 499 541 547 759 856 772 795 960 1120 1654 1955 2194 2400 2855 3446 3826 4665 5323 5001 5103 4836 4640 4683 4399
819 894 954 1043 1221 1172 1513 1288 1449 1349 1354 1274 1317 1245 1249 1096 1220 1110 1132 1356 1476 1571 1887 1870 1828 1748 1767 1694 1710 1771 2057 1619 1683 1724 1806 1752 1949 2058 1901 2045 2638 3408 3099 2915 3435 2388 2226 1984 2423 1934 1364 1233 2042 1133 1218 936 648 813 784 697 426 724 545 600 595 533 568 613 625 734 956 1279 1613 1973 3029 3154 3116 3272 4381 4890 4998 5011 5140 4900 4453
746 792 894 1014 1136 1114 1526 1227 1353 1249 1292 1234 1200 1136 1070 1056 1066 1174 1113 1269 1404 1513 1714 1838 1867 1801 1720 1680 1650 1722 2219 1887 1870 2035 2160 2335 2248 1914 1851 2195 4052 3778 2912 2683 2546 3340 2616 2155 1804 3384 1149 1520 1569 1362 931 1062 694 498 898 837 890 1707 971 636 549 562 596 610 661 662 836 979 1359 3049 3623 3618 3785 3572 3431 4612 5213 4875 5175 4932 4732
753 783 882 975 1090 1137 1374 1203 1284 1214 1207 1184 1132 1080 1049 1090 960 1058 1342 1214 1308 1464 1618 1743 1792 1757 1743 1632 1460 1479 2192 1709 1705 1908 2307 2599 2461 2518 2146 2963 3821 3376 2652 2444 2779 2927 2254 1850 2002 1951 2149 1830 1457 1558 1689 928 836 975 1644 1135 967 976 1074 861 690 1907 1488 745 767 689 856 985 1565 2252 2838 2697 2729 2995 2770 2983 4823 5321 5086 5087 4996
784 792 898 964 1051 1152 1246 1391 1231 1152 1137 1106 1025 1008 1048 1013 936 997 1342 1249 1346 1410 1580 1650 1660 1666 1673 1514 1311 1448 2150 1872 1891 2338 2632 2856 3804 3602 2796 3278 4156 3244 2795 2866 3091 3570 3222 1858 2328 1687 1763 1729 1507 1651 1785 1482 1034 694 1136 1946 1206 837 918 1078 2199 2652 1451 1071 1117 1941 1610 1763 1336 1437 1590 1802 1853 2076 2308 2461 3573 5262 5561 5345 5083
780 804 942 977 1040 1128 1152 1231 1173 1097 1061 1042 971 991 1000 1018 962 1068 1289 1407 1331 1543 1466 1525 1540 1520 1540 1424 1295 1275 1401 2306 2093 2417 2860 3601 3005 2976 2915 3301 4146 3348 2981 3228 3626 3987 3774 2334 2609 3922 1763 1879 2801 2529 1902 1649 1558 1314 1270 1101 608 806 851 2646 2326 1401 1880 2157 1404 2572 1955 1783 1674 1267 1474 1661 1849 2083 2563 2709 3524 3458 3977 5186 5438
780 805 891 958 1005 1076 1083 1102 1095 1049 1026 1005 932 921 958 936 942 964 1076 1365 1362 1512 1408 1373 1362 1278 1325 1349 1309 1297 1298 1618 2604 2777 2933 3648 3368 2842 2617 2900 3746 4164 3387 3552 3951 4480 4560 2895 2704 3121 2425 1776 1616 1649 1468 1256 991 733 558 461 394 572 1416 3234 1135 1356 1579 1951 2052 1354 1312 1060 784 776 851 1355 1732 1962 2026 2472 2871 3610 3697 4324 5473
771 806 865 917 973 1016 1030 1042 1052 1026 986 887 931 906 878 882 877 982 1124 1376 1483 1614 1417 1363 1283 1145 1398 1352 1396 1330 1373 1652 2744 2921 3314 2750 3083 3439 3064 2540 3403 3068 4816 3845 4705 4865 2632 2449 2239 1981 1965 1742 1659 1843 1467 1117 948 740 743 625 559 707 1921 825 1145 1223 1572 1873 1884 1470 1085 959 725 799 1422 1616 1530 1686 2181 2452 2568 3088 3422 3637 4108
767 803 825 872 923 973 994 1005 967 896 852 792 796 740 704 841 783 997 1149 1379 1432 1564 1446 1386 1301 1096 1105 1338 1424 1301 1462 1749 1982 3484 3168 3085 3446 3512 3332 3492 3831 3920 3154 2796 2822 2629 2592 2463 2516 2079 2365 1736 2591 2788 1601 1030 901 1294 755 625 744 670 1022 465 636 919 1490 1508 1390 1047 2050 1216 922 949 1840 1682 1648 1719 1629 2561 2638 2436 2320 3231 3845
772 789 799 841 880 913 918 872 789 784 777 778 928 668 753 866 883 1136 1165 1360 1410 1457 1500 1432 1311 1116 1004 1061 1179 1373 1453 1732 1971 2178 3658 3288 3161 3267 3161 3290 3306 3466 3034 3170 3085 2862 2632 2539 2928 3762 2309 1799 1548 1714 3668 1499 1174 1014 1146 1476 828 662 584 634 629 886 900 1638 1006 983 1234 1188 1296 1076 1607 1226 1201 1535 1804 2247 1823 1785 2007 2428 3614
751 769 779 815 852 875 851 816 806 795 758 1053 958 733 1120 992 926 1124 1193 1222 1204 1390 1410 1361 1204 1279 1349 1053 1109 1392 1520 1739 1871 2124 2926 3311 3216 3261 3492 3297 3222 2838 3447 3414 3174 2808 2736 2642 2600 2913 2682 2185 1880 1879 2327 2902 1925 1532 1329 1201 984 856 706 725 567 807 705 905 828 1415 1704 1412 707 1892 1486 1461 1415 1462 2070 1645 1855 2033 2503 2577 3010
747 759 777 808 837 873 870 814 836 819 766 1034 790 934 1227 901 876 972 1002 1073 921 995 1131 1070 975 1012 1081 1086 1059 1338 1611 1736 1754 1940 2238 3444 3052 3085 3335 3272 2915 2845 3560 3584 3075 2742 2440 2144 2344 2907 2888 2731 2045 1733 1896 3147 2740 3160 1567 1055 970 973 967 751 660 916 906 1394 722 511 1160 955 1396 1962 1922 1869 1545 1536 2236 1853 1886 2253 2297 2570 2627
746 765 787 818 835 874 878 833 845 848 794 1011 776 1179 1052 894 839 857 908 946 851 753 804 843 793 863 974 1036 1045 1182 1503 1667 1859 1838 2054 2581 3229 2911 3009 2998 2845 2854 4390 3695 2969 2680 2420 2265 3646 3094 3274 3659 2637 2150 1602 2197 1984 2153 1795 1694 2394 1703 1160 818 804 1046 961 834 652 444 518 722 1189 1611 1863 1504 2134 1762 1491 2016 1842 2005 2223 2545 2658
744 761 792 826 846 853 866 854 854 970 827 970 745 958 964 923 885 851 847 871 724 627 602 664 673 860 908 1025 1058 1208 1445 1562 1715 1786 1906 2162 3209 3079 2965 2907 3016 3029 3753 3694 2921 2470 2192 2305 3834 3158 3404 4145 3248 2361 2301 2363 2160 2257 2016 1650 2000 1456 1008 798 1010 989 932 844 670 602 544 502 921 1211 1626 1721 1753 1686 1595 1780 1817 2103 2347 2596 2527
725 733 774 821 838 834 838 860 873 895 883 939 797 791 1062 908 955 894 859 771 619 525 540 796 730 1084 848 870 1058 1260 1401 1478 1584 1734 1757 1891 3268 3605 3114 3049 3044 3038 4332 3858 3028 2482 2212 2113 1906 1783 2306 3186 3177 3013 2923 2778 2744 2690 2464 2255 1796 1530 1103 1253 1131 1201 1116 883 780 746 887 781 712 855 1134 1266 1500 1620 1570 1693 1769 2510 2858 3023 2399
642 706 738 789 823 824 802 831 859 914 943 993 943 762 865 962 897 846 759 613 524 444 502 553 557 644 818 839 1063 1268 1397 1468 1564 1671 1835 1944 2154 3229 3522 3216 3170 2966 3896 3631 3142 2807 2523 2167 1873 2018 2553 3204 2999 4078 3085 2866 2949 2819 2475 2162 1892 1772 1632 1444 1479 1344 1100 924 832 790 997 952 834 1047 953 1193 1404 1450 1403 1409 1695 1860 2060 2386 2326
624 686 728 767 797 806 759 764 796 833 868 964 990 916 836 828 796 756 643 555 447 474 480 473 494 519 724 788 1031 1301 1353 1471 1493 1827 1843 1937 2078 2577 3202 3065 3041 3688 4165 3635 3171 2779 2530 2234 1857 2124 2898 3010 2721 2569 3512 3922 3184 2759 2527 2100 1996 1903 1751 1794 1737 1418 1085 902 861 943 1101 1094 903 903 1426 1119 1808 1567 1538 1436 1791 1976 2030 2199 2228
Wind_Speed
2 5 5 8 7 9 9 10 12 13 15 16 16 17 15 11 11 12 9 7 7 7 6 6 6 4 2 4 7 8 8 8 8 8 8 8 9 9 8 8 8 7 7 8 9 10 8 6 3 3 4 6 6 6 6 6 4 3 2 2 2 3 3 3 3 2 2 1 1 1 2 3 5 6 7 9 10 10 11 10 8 7 6 9 12
7 6 5 7 8 8 8 11 13 13 15 15 14 13 12 10 13 11 7 7 6 6 5 6 6 5 5 6 7 8 7 7 7 8 8 9 9 9 9 8 7 7 7 8 9 8 6 4 5 6 6 6 5 5 5 4 3 2 2 3 4 4 4 5 4 3 2 1 1 1 1 1 3 5 7 8 10 10 10 9 9 4 3 7 9
8 8 7 8 8 9 9 11 12 13 12 9 7 8 9 8 12 6 5 6 5 4 5 6 5 4 6 7 8 7 7 7 7 8 9 9 9 9 9 8 7 6 6 7 7 5 2 4 5 6 6 5 4 5 5 5 4 4 3 2 3 4 4 5 4 4 4 3 2 1 1 1 1 3 5 7 9 9 10 9 8 7 5 8 7
8 7 7 9 12 9 8 10 9 9 5 2 3 5 6 7 8 6 5 4 3 4 5 6 5 4 5 7 7 5 7 7 7 8 9 9 10 9 9 8 7 6 6 6 4 4 4 5 5 6 6 4 3 4 4 4 4 5 4 3 3 3 2 2 3 4 3 4 4 2 5 5 3 3 5 7 9 9 9 8 8 7 7 7 8
6 6 7 8 9 8 8 9 5 3 2 2 4 5 6 7 6 7 6 4 3 4 5 4 5 6 8 7 7 7 7 7 7 8 9 9 9 8 8 7 7 6 5 4 3 4 4 5 6 6 5 4 3 3 4 4 5 5 5 5 5 4 4 4 4 4 5 5 5 4 6 5 6 5 5 7 8 8 8 8 7 7 8 8 8
2 2 4 4 5 5 10 8 5 3 1 2 4 5 5 6 5 5 5 5 2 2 4 5 5 5 8 9 8 7 7 6 6 7 8 8 9 8 8 8 7 6 5 3 2 3 4 5 6 5 4 3 3 3 4 5 5 5 6 6 6 6 6 5 5 6 6 7 5 6 6 6 6 6 5 6 8 9 10 10 8 7 7 8 8
3 2 2 1 2 4 8 7 5 4 2 0 2 3 4 4 3 3 6 8 5 4 6 7 5 6 7 7 7 7 7 6 6 7 8 8 8 8 8 8 8 7 4 2 3 4 5 6 6 5 4 3 3 3 3 4 5 5 6 5 5 7 7 8 8 8 7 8 8 7 7 6 6 8 5 5 6 7 9 10 10 8 8 10 10
4 4 2 2 4 6 7 5 5 3 3 1 1 1 2 1 1 3 11 7 5 4 6 6 6 4 5 7 8 7 6 5 5 6 7 7 7 7 8 8 8 6 4 3 4 4 4 5 6 6 5 4 3 2 4 4 4 5 6 6 7 9 9 10 10 9 9 10 9 8 7 7 6 7 7 6 5 6 8 9 10 9 11 13 14
4 3 2 2 4 7 6 5 4 4 3 1 0 1 1 1 1 2 11 10 11 8 5 6 7 8 8 3 8 8 6 5 5 6 7 6 6 7 7 8 7 6 4 4 3 3 3 4 5 6 5 4 2 2 3 6 7 7 8 9 8 9 11 12 13 11 10 11 10 9 7 7 7 7 6 6 6 6 8 9 10 11 12 14 15
3 2 2 2 3 7 6 5 4 4 3 2 2 2 3 3 2 3 7 11 10 13 10 7 6 5 9 7 8 9 7 4 4 5 7 6 5 6 7 7 7 5 4 3 3 2 3 4 5 6 5 4 3 3 3 4 4 5 6 8 11 12 13 13 14 12 13 13 12 10 10 9 7 8 8 10 9 8 9 12 14 14 14 14 14
1 1 2 2 3 6 6 6 5 4 3 3 3 3 3 3 3 4 6 6 11 12 18 12 9 8 8 8 8 9 7 4 4 4 7 6 6 6 6 6 6 5 4 4 4 3 5 5 6 5 5 4 3 4 4 4 4 7 9 11 13 15 16 15 14 14 14 14 13 12 11 10 7 8 9 11 11 11 13 16 17 16 15 13 12
1 1 2 2 3 6 6 6 6 5 4 4 4 3 4 3 4 5 6 7 7 6 10 12 11 8 9 9 8 7 6 4 4 5 6 6 5 5 5 5 4 4 4 6 6 6 5 6 5 5 5 4 4 5 5 5 6 10 11 15 17 16 17 19 14 16 16 16 15 15 11 10 8 8 11 13 14 15 16 18 17 15 14 13 11
1 2 2 3 2 5 6 6 6 6 6 5 4 4 4 4 4 5 6 8 6 6 8 9 9 9 9 9 7 6 6 4 3 4 5 4 4 5 4 3 3 3 5 5 6 6 7 6 6 6 6 5 5 5 6 6 6 9 13 15 16 16 18 22 16 18 18 17 17 15 12 10 10 10 12 13 13 14 16 18 17 15 15 13 12
2 2 2 3 2 6 8 7 7 7 7 6 5 4 4 5 5 5 6 7 7 7 7 8 8 8 8 8 7 7 5 4 3 4 4 3 3 4 3 2 3 5 6 6 6 7 7 7 7 7 7 6 6 6 7 7 8 10 12 13 15 16 19 21 18 18 19 19 17 15 13 11 11 12 15 15 16 18 20 19 17 16 14 12 13
6 3 2 4 3 3 9 8 8 8 8 7 6 5 5 6 7 7 7 7 8 7 6 7 8 8 7 7 7 6 5 4 4 4 3 2 2 3 2 3 4 6 7 7 8 8 8 8 8 8 8 7 6 6 6 8 10 10 10 13 15 18 20 17 18 19 19 19 17 16 13 12 14 17 17 16 15 17 19 20 15 15 14 9 10
6 5 4 5 5 4 4 7 9 9 9 8 7 6 5 6 7 8 8 7 7 7 6 7 8 7 6 6 6 6 5 4 3 2 2 1 1 2 3 3 4 6 7 8 9 8 8 9 9 9 9 8 7 7 7 9 10 11 11 13 15 19 21 19 18 19 19 18 17 16 14 13 15 15 16 17 18 19 19 18 18 17 14 13 14
5 5 6 5 6 6 6 5 5 9 9 9 8 8 7 6 6 8 8 9 8 7 6 7 8 7 6 5 5 5 5 3 2 1 2 1 1 2 3 3 5 6 8 8 8 8 8 9 9 10 10 10 9 8 8 10 12 11 13 13 14 20 22 21 19 19 18 19 17 16 15 13 13 16 17 18 17 18 18 18 20 19 17 17 18
5 5 5 5 5 6 6 6 5 6 6 6 9 9 8 8 7 8 8 9 9 9 7 7 7 7 6 5 5 3 4 3 1 1 1 1 3 3 3 4 5 7 8 8 8 8 8 9 9 9 10 10 9 9 9 12 12 13 15 16 16 21 23 22 19 19 19 20 18 16 15 15 16 18 18 18 18 18 18 19 20 19 19 20 21
6 6 5 6 5 5 6 6 7 8 8 8 7 5 8 8 8 8 9 9 8 8 8 8 7 6 5 5 4 3 2 1 0 1 1 2 3 5 5 6 6 8 8 8 8 8 9 9 9 10 10 10 9 9 11 13 13 14 16 16 18 21 23 19 19 19 19 19 18 17 16 17 18 18 18 17 18 19 21 22 21 20 18 18 16
5 6 6 6 7 7 7 7 7 8 8 8 7 6 5 8 8 8 9 10 9 8 8 8 7 6 4 4 3 3 3 2 1 3 3 4 5 4 6 7 8 7 7 8 9 9 9 9 9 10 11 10 10 10 11 12 12 13 14 15 19 20 16 17 18 19 19 19 19 18 17 19 19 19 18 17 16 17 19 19 16 16 15 14 13
5 6 7 7 8 8 9 9 8 9 9 8 8 7 6 8 8 8 9 9 9 9 9 9 7 5 5 3 9 9 7 7 8 6 7 6 6 7 8 9 8 7 8 9 9 9 10 10 11 11 12 11 11 9 10 11 12 12 13 16 18 14 16 17 18 19 19 20 20 18 19 19 20 18 16 16 17 17 18 17 17 16 15 15 14
4 5 5 7 8 8 9 10 10 10 11 10 9 9 9 11 11 10 11 8 9 9 10 11 11 11 7 10 10 9 7 8 8 7 7 8 9 10 10 10 9 7 8 10 9 10 10 10 11 12 12 11 9 5 8 9 10 13 16 16 13 15 15 17 18 19 20 21 20 19 21 19 19 19 18 16 15 17 17 17 16 16 15 14 14
5 4 4 5 6 8 9 10 10 10 11 11 11 12 12 13 12 12 11 8 10 14 14 14 14 12 12 11 10 9 9 8 7 5 7 10 11 13 12 12 10 9 10 10 10 10 10 10 11 10 9 6 3 6 6 6 7 14 13 12 13 14 15 16 18 19 21 21 20 21 21 20 21 21 16 15 16 16 18 16 15 14 14 13 12
7 5 4 3 5 6 8 9 9 10 10 11 12 13 13 14 13 12 13 14 16 17 17 16 14 13 12 11 10 10 10 10 10 11 9 9 12 13 14 13 10 9 10 7 8 8 10 10 10 10 5 3 4 3 3 4 5 7 10 13 14 14 15 17 18 19 20 21 20 22 22 21 22 19 13 14 14 15 14 13 12 13 14 12 11
7 5 4 4 5 6 7 9 10 9 10 10 11 11 12 13 14 14 14 15 16 17 18 16 14 14 12 11 11 11 11 11 9 9 9 10 12 13 11 9 7 6 6 6 6 6 6 7 7 6 4 3 3 1 3 5 6 8 11 13 13 14 15 17 18 19 20 21 21 23 23 23 24 21 18 14 16 14 17 15 14 14 13 12 11
7 7 6 6 6 6 7 8 9 9 9 9 10 10 11 11 12 13 15 16 16 17 17 16 14 14 12 12 12 12 12 12 11 10 11 11 12 13 12 9 8 7 5 6 6 6 6 6 6 6 4 2 1 0 4 6 8 9 11 12 13 15 16 17 18 19 20 20 20 22 24 24 24 23 19 20 18 18 17 16 14 13 13 12 12
8 7 7 6 7 8 8 9 9 9 9 10 10 11 11 11 10 11 15 15 16 16 16 16 14 14 13 12 12 12 12 12 11 11 11 11 12 13 12 10 8 7 6 6 7 6 6 6 6 5 4 1 3 3 4 5 7 9 10 12 12 14 16 18 17 18 19 19 19 21 22 23 23 22 19 17 19 19 19 17 13 13 14 14 14
7 8 8 7 8 10 9 10 9 9 9 9 9 10 10 10 10 10 14 14 15 15 15 15 15 15 13 13 14 13 12 13 12 12 11 11 13 13 12 11 9 7 6 5 7 7 7 6 6 5 4 2 4 4 6 7 8 8 10 11 13 15 17 17 17 18 19 19 19 19 21 22 22 21 18 18 20 20 20 18 17 17 18 17 15
9 8 7 8 8 8 10 10 10 9 9 8 8 8 9 9 9 10 12 12 15 15 16 15 15 14 13 13 13 12 11 10 11 11 11 11 12 13 13 11 9 7 6 6 5 7 8 7 6 4 2 3 5 6 7 8 9 10 11 12 14 16 17 17 18 19 20 20 20 18 20 21 21 20 18 17 12 22 19 19 20 20 18 17 17
11 9 8 7 7 8 10 11 10 9 9 8 6 7 7 7 7 8 11 11 13 14 15 14 14 14 13 13 12 11 9 8 9 11 12 10 10 15 14 10 8 7 6 7 5 6 8 8 6 4 3 4 5 6 7 9 10 11 12 12 14 15 16 17 18 19 19 20 20 18 19 19 19 19 18 17 15 17 17 20 20 20 20 19 19
11 11 9 7 7 8 8 9 9 9 8 7 6 6 6 6 6 8 10 9 11 13 13 14 15 13 13 12 11 8 7 8 9 11 11 9 13 17 13 8 8 7 6 7 5 5 5 6 5 4 4 2 2 6 9 9 9 10 11 13 15 15 16 16 16 17 18 18 18 18 17 18 18 18 17 17 16 16 17 20 20 21 22 21 22
12 12 10 8 9 9 9 8 8 8 8 6 5 5 5 5 6 8 8 9 11 12 12 14 13 12 10 9 8 6 7 7 9 10 10 14 18 16 11 9 9 8 8 7 7 6 5 5 4 3 2 2 4 5 8 10 10 10 10 13 15 15 15 16 16 17 17 17 17 17 16 15 15 16 16 16 17 17 19 20 22 23 22 22 23
9 11 12 12 13 10 10 9 8 7 7 6 5 5 4 3 4 6 7 7 8 10 11 12 11 9 6 6 5 6 8 8 11 12 13 18 18 14 12 10 9 9 9 9 8 8 7 6 5 4 2 3 4 5 8 9 10 11 12 14 15 16 16 16 17 16 18 17 16 16 15 13 12 14 14 14 16 17 19 22 23 24 23 23 24
9 9 12 12 10 7 8 7 8 7 6 5 4 3 2 2 3 4 3 3 2 4 6 8 7 5 5 5 6 7 8 10 13 15 16 19 16 12 12 11 10 10 9 9 10 8 8 8 7 6 5 4 2 4 6 8 9 9 13 14 15 16 17 17 18 18 17 16 15 14 13 11 12 11 9 12 15 16 18 21 22 24 24 24 24
8 10 13 12 11 9 8 7 9 7 6 4 3 1 1 1 2 2 1 1 2 3 4 4 4 6 7 8 7 7 9 11 14 16 18 17 14 13 12 10 9 9 9 9 8 8 7 7 6 7 5 5 4 3 5 6 6 9 11 11 14 14 16 18 18 19 18 16 14 13 11 11 12 11 9 9 12 15 16 19 23 24 25 25 25
12 12 11 11 12 12 10 8 9 8 6 5 2 2 2 3 2 1 2 3 3 5 6 6 7 9 9 9 9 9 11 14 16 16 18 15 12 12 11 10 10 8 9 9 8 10 8 6 4 4 6 5 6 4 5 5 4 6 8 11 13 14 16 17 18 19 17 15 14 12 12 13 13 10 9 9 10 11 15 18 22 24 26 26 25
12 13 13 13 13 13 12 10 10 8 5 5 3 3 3 3 2 4 3 3 4 5 7 8 9 10 10 11 11 12 14 16 18 17 16 14 11 11 11 9 8 7 8 8 9 8 7 6 5 5 5 5 5 4 4 5 2 4 6 8 9 12 16 18 18 16 14 15 14 12 12 14 12 10 8 9 10 11 12 16 20 24 26 27 26
13 14 15 16 14 12 10 9 6 5 3 2 2 3 4 3 4 4 3 4 5 6 7 8 9 10 10 11 12 14 16 18 19 17 13 12 10 10 10 8 7 7 7 7 7 6 5 5 5 4 5 5 4 4 3 1 3 3 5 7 9 12 16 16 15 13 14 15 13 13 14 12 9 8 7 9 11 11 10 13 19 23 26 26 25
13 15 14 13 11 10 9 9 6 4 3 1 1 2 2 3 5 4 4 4 5 7 8 8 9 9 11 12 14 16 18 19 18 15 12 11 10 8 7 7 6 5 6 6 7 6 5 5 6 5 4 2 2 2 1 1 1 2 5 7 8 10 10 11 12 12 14 15 12 11 11 10 9 8 9 10 11 10 10 11 15 17 20 25 26
12 13 14 13 11 9 8 6 5 5 3 1 0 2 3 4 5 6 6 7 8 9 9 9 9 10 12 14 16 18 19 18 17 14 12 10 8 7 6 6 5 5 4 5 6 6 7 7 8 7 7 4 3 2 3 1 1 3 4 6 8 9 9 9 10 12 12 12 11 9 9 9 8 8 8 9 9 8 9 11 14 16 17 21 26
11 12 13 13 11 10 8 8 6 5 5 3 3 1 2 3 6 8 9 9 10 10 9 10 11 12 14 16 18 18 17 17 16 13 10 10 7 7 7 6 6 4 3 2 2 3 5 4 6 5 5 6 3 3 3 4 4 1 1 5 6 7 9 8 10 10 11 11 10 8 8 8 8 7 6 8 8 7 8 10 12 14 15 17 21
10 12 13 13 10 9 9 7 5 6 6 5 4 3 3 4 5 8 9 10 10 10 11 13 15 16 16 18 19 18 16 15 14 11 9 7 7 7 7 7 6 5 4 3 4 5 7 7 6 5 3 4 2 3 3 4 4 3 3 6 5 8 8 7 8 10 9 9 8 7 7 8 9 8 7 6 6 6 6 8 10 13 14 16 19
10 11 11 10 8 7 6 6 6 6 6 6 5 5 4 4 5 7 7 9 12 12 13 15 17 18 18 18 18 16 14 14 12 10 8 7 6 6 7 7 5 5 5 7 8 8 7 7 6 5 4 4 4 4 5 5 2 3 4 4 4 5 7 5 7 8 8 8 7 6 6 7 8 8 7 5 3 4 5 6 9 11 12 15 17
6 7 8 9 6 5 6 6 5 5 6 6 6 6 6 5 7 7 7 9 12 13 15 17 18 19 19 17 16 14 12 12 10 9 8 7 5 5 6 6 6 5 5 7 8 8 7 7 6 5 5 6 6 4 6 4 4 3 3 4 7 6 6 7 8 11 8 8 7 6 6 7 7 8 7 4 2 4 5 5 6 9 12 13 15
6 8 8 7 4 6 6 6 4 5 6 6 6 7 8 8 10 11 11 12 14 13 14 18 18 18 17 15 15 12 11 10 9 8 7 6 6 6 5 6 5 5 5 5 5 5 5 5 4 5 4 3 3 3 3 3 3 5 5 5 5 5 7 9 6 11 7 6 7 8 7 7 7 7 6 4 2 3 3 4 6 8 9 11 14
5 6 6 5 3 3 4 4 4 4 6 6 5 8 9 8 10 10 11 12 13 12 13 14 14 14 14 13 12 10 9 9 9 8 6 6 5 4 4 4 3 4 4 4 3 4 5 6 4 4 5 3 3 4 2 2 0 4 6 6 7 7 8 7 6 8 8 9 10 9 9 6 7 7 7 5 2 3 3 3 5 7 8 9 11
3 2 3 2 1 1 3 5 4 5 6 6 5 7 8 9 9 9 10 10 10 12 11 11 10 12 11 11 10 9 8 7 7 5 5 4 3 3 2 2 3 3 3 4 3 3 4 4 4 5 5 5 4 4 1 2 2 1 2 2 2 3 5 6 9 9 8 10 9 9 9 8 8 8 7 5 4 3 3 3 4 6 8 8 10
2 1 2 1 1 1 2 4 6 5 6 6 6 7 7 8 9 9 9 9 8 9 8 8 8 8 8 9 8 7 6 5 4 3 3 3 2 2 2 2 2 3 3 3 3 4 5 5 5 4 5 4 2 2 1 2 1 3 1 2 2 2 4 6 7 10 11 11 12 11 12 10 9 9 9 7 5 5 4 4 4 6 7 8 9
2 2 1 1 2 2 2 4 5 5 6 6 6 6 8 8 8 8 9 10 8 8 7 7 6 6 6 7 6 6 5 4 3 2 2 1 2 2 2 1 1 1 2 3 4 4 4 5 5 4 3 3 2 3 3 2 2 2 1 3 4 6 6 6 7 9 10 10 11 10 10 9 9 10 9 8 7 6 5 6 6 6 6 7 8
2 4 4 5 5 5 3 3 4 6 6 6 5 5 6 8 8 8 8 9 9 8 7 6 6 5 5 5 5 4 3 3 2 2 1 1 1 2 2 0 1 1 2 2 3 4 5 4 4 3 2 2 2 3 3 3 4 3 5 5 4 5 5 6 7 8 7 9 11 10 9 8 8 11 10 10 8 8 7 6 6 6 5 6 7
5 5 5 5 6 5 4 4 4 5 6 5 5 4 5 6 7 6 6 7 7 7 7 7 7 6 5 5 4 3 3 2 2 1 1 1 2 2 2 1 0 1 2 2 2 3 3 4 3 2 2 1 2 3 2 2 3 4 6 7 8 9 10 10 12 11 9 9 8 10 9 9 10 11 11 9 10 9 8 7 7 6 6 7 6
Wind_Direction
252 275 254 285 285 287 296 294 293 286 284 281 277 275 267 256 259 247 232 242 246 257 272 280 283 286 285 300 288 292 296 289 286 286 282 282 282 284 278 279 271 270 281 289 291 290 293 281 247 186 178 182 179 166 151 142 129 103 64 16 347 345 354 340 320 294 261 215 216 224 263 270 285 283 278 285 287 290 293 292 286 274 255 259 262
293 266 263 266 291 293 297 298 292 288 282 278 270 258 247 248 247 234 211 222 233 255 275 282 292 300 312 307 298 294 292 286 289 288 288 290 290 289 284 278 276 270 276 286 284 271 246 211 176 169 179 188 177 154 140 129 126 97 50 16 357 355 350 345 337 317 294 269 108 91 119 277 284 280 281 284 284 285 293 299 299 310 291 277 267
259 268 266 272 299 299 304 298 296 287 283 281 258 235 226 232 256 239 215 224 246 274 290 291 304 325 321 310 297 296 295 292 293 293 294 295 296 294 291 282 276 283 286 280 277 272 222 178 167 173 179 181 162 142 137 130 109 78 64 45 12 4 359 355 346 337 336 345 8 21 349 338 316 293 286 282 285 292 302 309 314 317 329 301 281
280 265 277 298 307 305 300 288 283 284 284 233 206 212 229 237 254 266 244 231 251 267 292 302 314 338 315 295 288 290 297 301 301 300 301 302 299 298 295 291 292 297 294 284 255 214 182 174 176 175 171 161 142 136 133 116 95 95 86 72 54 37 34 19 6 2 357 0 348 16 59 69 48 334 313 300 296 299 304 311 317 324 318 306 297
281 275 295 302 306 309 313 296 302 307 271 166 203 215 242 248 236 242 250 255 276 290 297 296 309 313 307 299 301 301 297 303 310 309 306 304 299 295 291 291 294 294 290 268 227 192 175 175 177 171 159 147 133 122 119 98 86 78 81 75 65 67 75 69 45 23 16 1 351 24 46 45 52 349 336 320 307 307 312 313 315 325 325 317 314
265 272 305 295 304 331 332 343 6 344 344 206 216 219 240 241 229 242 259 275 314 315 305 317 330 317 311 305 302 296 297 309 313 310 305 302 298 295 295 296 297 297 292 265 225 205 182 174 168 155 149 141 106 87 96 91 83 95 85 64 63 65 70 65 48 35 23 8 3 34 32 33 34 29 348 332 320 315 317 322 326 330 336 333 336
17 59 10 11 34 16 355 1 15 13 18 130 201 213 226 233 238 269 275 272 275 318 303 310 318 318 301 302 291 296 302 315 312 309 305 299 298 300 301 306 309 315 317 283 226 205 186 169 159 154 152 145 119 83 90 94 87 84 86 75 72 80 70 61 51 37 21 28 35 30 26 20 23 44 350 354 334 324 322 331 337 340 348 354 351
56 59 61 60 75 20 5 19 29 28 43 66 157 197 228 264 292 291 282 296 312 337 302 323 309 296 267 270 297 296 290 295 301 299 298 299 303 305 307 312 320 323 307 261 225 207 178 161 159 156 158 147 122 83 58 62 70 79 73 65 63 67 61 56 51 39 20 34 31 25 19 16 19 27 7 353 344 340 338 341 348 356 3 6 6
46 52 47 37 57 359 7 16 19 24 33 47 11 303 296 302 303 291 299 312 316 304 323 324 313 302 282 335 304 296 287 286 293 304 301 302 306 307 310 317 321 313 281 245 228 210 167 161 167 172 165 151 116 73 52 41 51 57 51 49 58 63 62 53 48 34 32 36 28 24 16 12 11 14 12 349 355 1 1 358 9 15 19 12 14
51 78 64 69 60 357 355 356 12 13 11 3 348 328 325 316 301 296 291 304 312 325 316 311 292 295 310 324 300 291 288 289 288 306 309 309 311 311 312 311 304 285 251 230 229 199 187 182 185 177 168 161 152 115 90 88 108 109 78 52 55 60 55 50 43 29 35 32 27 20 21 360 6 9 20 356 2 12 16 16 24 32 36 22 18
41 101 110 93 62 352 347 348 354 357 355 350 339 325 316 308 305 295 296 301 313 328 325 324 314 329 319 294 290 284 289 295 299 318 318 321 322 312 305 296 280 256 230 223 228 203 190 191 183 177 166 155 133 109 100 97 108 98 84 70 63 61 56 52 34 37 32 28 25 23 20 355 360 8 28 7 7 17 23 28 37 44 44 30 32
305 196 161 139 4 341 340 337 338 337 333 329 325 311 299 304 303 296 293 297 290 301 300 306 311 304 292 286 277 286 292 305 334 338 325 320 316 303 296 285 265 240 213 203 197 193 184 184 175 169 152 141 116 113 107 99 80 68 68 65 66 61 57 52 36 34 29 25 22 22 19 355 359 14 21 14 14 24 32 37 43 49 48 41 33
295 252 215 159 176 331 330 328 323 320 318 319 312 307 298 295 293 293 293 291 301 301 291 291 288 288 281 283 284 289 296 301 329 331 324 328 311 293 284 275 254 221 207 202 191 181 179 169 159 144 138 130 123 110 99 90 80 68 63 66 69 68 57 47 37 31 28 25 26 17 7 0 3 18 16 13 18 26 37 44 50 56 52 46 35
307 278 243 210 213 320 324 324 318 313 312 312 304 300 294 287 284 283 282 290 302 300 292 289 286 282 283 289 296 294 299 314 324 325 330 322 292 275 273 250 219 198 197 191 178 175 168 153 138 135 133 132 119 112 106 102 83 67 60 65 71 66 57 39 29 30 26 25 22 15 7 9 15 19 15 14 21 26 38 45 50 55 60 56 50
322 307 250 228 239 266 316 316 315 313 311 309 302 293 293 286 286 283 285 294 294 294 295 285 280 279 280 288 293 297 306 316 320 326 326 308 265 262 255 226 196 188 185 177 172 169 159 143 133 133 134 124 116 108 107 100 87 78 69 59 58 53 37 33 33 30 25 23 20 14 11 13 21 15 16 17 24 31 38 46 55 63 59 61 67
322 310 280 233 235 238 257 305 313 314 314 313 302 293 287 285 286 288 289 288 292 297 294 286 278 278 282 287 296 302 304 303 315 327 321 303 256 223 220 199 180 177 177 171 168 162 147 137 133 131 127 118 109 103 98 89 83 75 63 50 48 39 27 28 31 28 23 19 19 16 14 19 16 17 22 24 26 30 38 42 39 56 56 54 58
318 305 280 257 244 226 228 233 290 316 316 316 310 302 294 291 289 291 293 295 296 295 296 292 288 287 289 288 290 295 297 292 318 334 341 300 228 201 200 180 167 171 168 162 160 151 140 134 132 132 126 121 115 111 104 95 86 79 67 54 42 32 27 22 27 24 19 16 17 18 19 21 30 24 25 27 32 33 40 47 52 44 51 48 45
307 292 284 268 253 236 230 223 235 247 253 294 308 309 303 301 301 293 291 293 298 297 300 294 288 287 284 285 283 285 291 288 312 336 354 257 208 180 169 164 157 160 158 156 153 147 138 134 133 131 125 121 118 113 106 94 87 78 66 54 42 30 23 17 22 19 16 14 15 17 21 25 37 30 27 31 34 38 39 43 52 61 57 52 48
296 286 272 270 259 246 246 235 226 231 242 237 234 277 306 304 305 300 292 292 290 289 290 285 280 273 276 281 283 293 276 289 154 113 150 190 211 184 159 152 147 148 149 148 148 144 138 135 134 128 124 121 118 110 99 90 81 67 56 45 37 26 18 18 19 15 14 14 16 17 21 31 39 32 29 31 34 38 42 40 47 53 57 62 54
279 269 258 241 243 246 243 241 236 243 242 242 239 218 283 296 294 297 292 287 287 283 279 278 277 269 277 273 297 224 208 200 106 141 130 161 171 149 141 143 136 134 140 148 148 146 139 135 131 128 126 124 120 111 103 95 82 61 40 36 21 16 21 22 12 11 14 14 15 20 23 29 36 31 28 32 36 41 37 34 35 42 49 53 53
271 266 259 249 244 247 249 247 248 258 254 249 232 227 228 284 269 283 280 277 281 279 272 271 266 253 242 242 225 214 198 192 177 169 161 163 141 134 135 134 130 128 144 154 153 146 141 140 137 132 130 129 125 130 120 97 77 44 28 18 8 17 21 15 12 11 13 15 16 20 25 32 31 30 33 35 39 36 33 33 34 40 43 45 46
306 293 264 255 251 250 259 261 260 260 257 249 245 238 231 251 246 228 236 244 259 266 249 234 235 209 229 218 217 214 199 191 179 173 164 150 139 130 133 134 128 134 154 159 158 151 144 139 135 135 136 137 145 128 97 89 53 13 12 1 12 18 17 12 9 12 12 14 15 21 26 29 25 30 34 41 39 38 38 40 40 42 48 51 50
336 323 303 287 259 257 261 268 272 266 258 249 249 242 240 241 244 240 233 234 225 237 232 232 228 227 225 216 215 213 200 196 178 143 140 138 135 134 141 142 141 150 162 163 160 153 142 139 141 142 145 146 134 91 81 73 19 359 1 10 15 14 12 10 9 12 12 14 16 21 26 28 30 34 35 45 45 39 41 45 48 50 52 54 55
341 334 325 297 284 272 268 264 272 267 257 249 246 244 244 243 243 240 233 225 230 235 234 232 230 228 224 217 213 208 201 196 186 176 169 162 145 141 144 149 144 147 163 177 166 157 147 144 144 151 162 131 90 93 58 51 19 17 12 13 12 10 10 9 12 13 12 17 20 23 27 30 32 37 31 47 51 38 40 44 52 57 63 53 49
326 308 319 316 305 293 272 266 264 261 257 251 251 250 246 243 242 241 237 231 230 232 234 230 229 227 221 214 211 204 198 200 189 165 157 161 150 142 146 147 132 138 168 178 172 153 149 142 150 164 169 133 126 117 13 10 14 8 10 15 10 6 8 10 12 13 14 20 24 25 31 30 30 28 26 35 51 45 37 38 45 49 58 58 48
321 326 332 327 326 296 293 278 271 261 257 252 253 255 253 249 248 242 238 232 230 231 233 231 228 225 218 214 211 206 200 196 187 165 161 165 157 145 146 144 141 143 171 171 162 155 143 145 154 162 159 147 224 323 357 8 10 5 7 11 8 7 9 11 12 13 14 20 24 29 33 33 30 30 27 27 39 35 39 34 41 49 56 58 54
335 326 315 326 320 320 301 292 276 266 261 251 252 250 248 247 245 242 241 236 233 234 234 231 227 226 219 210 212 206 202 199 184 175 165 168 156 149 148 151 141 146 170 171 151 145 140 149 169 165 162 246 261 315 339 355 5 2 8 8 11 14 14 12 13 13 16 18 22 30 35 38 36 33 32 35 32 29 35 34 36 47 54 56 51
328 318 322 326 320 334 314 306 292 281 264 255 257 251 247 247 242 244 240 240 239 235 234 230 224 222 217 211 217 214 210 204 188 180 165 163 161 160 156 150 142 142 161 165 148 143 146 161 169 192 202 237 294 321 337 350 354 356 10 10 12 19 17 14 14 16 17 19 19 28 39 42 43 41 39 30 40 28 33 32 33 43 48 53 49
348 331 320 323 324 324 320 313 305 294 278 267 260 252 248 244 241 242 244 245 238 233 232 232 228 225 219 218 221 222 219 207 189 177 163 165 171 160 153 143 137 138 157 153 147 143 150 168 176 195 221 267 299 316 332 348 351 354 8 10 13 19 19 15 17 17 17 18 19 29 42 44 48 49 43 40 19 56 29 32 38 41 44 45 46
358 332 329 325 316 320 324 332 324 290 284 282 272 257 258 258 247 254 245 249 242 236 236 232 231 230 224 227 225 229 226 208 189 177 171 172 163 148 143 140 137 146 156 152 158 148 155 166 180 191 212 280 297 325 330 350 357 358 2 8 13 16 17 16 17 19 19 19 21 27 41 45 50 52 53 50 31 33 31 34 38 40 41 38 37
345 344 341 333 326 327 330 324 308 307 279 301 289 270 270 262 259 249 252 248 248 244 238 235 231 228 228 231 231 215 211 199 184 171 163 153 143 141 139 143 146 161 157 147 152 154 160 153 147 164 205 234 308 332 339 355 0 358 360 5 13 13 16 16 18 22 22 21 21 24 29 42 52 55 53 55 49 39 35 31 37 40 39 36 36
349 346 343 333 341 341 340 329 317 300 296 316 300 291 274 268 260 256 258 255 254 252 246 239 230 227 229 233 229 204 180 168 156 146 139 136 137 138 139 149 154 155 153 146 155 169 168 156 150 177 184 233 264 330 349 355 1 3 1 13 13 14 15 16 21 24 26 22 20 20 21 26 46 59 57 55 51 39 34 29 33 38 39 38 34
352 342 338 340 350 342 345 337 325 320 312 312 298 278 268 273 263 260 263 267 262 256 248 240 228 223 222 218 199 181 168 143 128 126 127 131 134 137 142 147 152 152 150 152 164 185 189 172 172 204 236 248 277 315 336 349 357 3 6 18 18 18 14 16 22 23 25 21 18 18 19 24 31 50 62 58 56 46 36 30 31 33 36 34 35
344 339 339 345 344 343 348 335 338 334 324 310 291 270 269 254 251 253 287 281 259 241 231 230 217 200 189 178 166 164 153 131 124 124 128 132 135 138 140 145 150 153 155 164 173 181 182 176 175 199 221 242 248 321 314 342 354 3 11 19 20 22 15 19 18 21 20 16 17 21 20 25 28 32 42 57 58 50 39 36 33 33 35 35 33
347 350 353 347 347 356 358 352 356 345 337 315 348 316 215 190 228 241 58 88 130 138 158 189 180 168 164 155 153 155 141 131 127 127 133 135 138 144 144 137 144 156 165 166 164 177 194 172 176 197 212 228 231 265 286 308 336 11 19 18 24 23 22 22 18 20 17 13 16 26 25 29 24 28 40 38 52 50 41 38 31 31 32 34 33
7 2 351 349 0 5 5 356 3 359 356 4 31 81 105 104 173 99 117 109 116 116 131 150 161 163 159 153 148 147 140 134 130 131 135 136 140 142 135 140 148 158 164 169 171 180 179 165 179 218 228 220 238 239 262 265 323 3 10 15 21 20 22 24 22 18 18 13 19 29 31 31 27 30 46 38 41 45 38 35 32 30 30 32 31
10 3 358 360 6 7 8 2 5 6 8 18 44 70 114 98 93 92 106 112 112 116 138 152 159 158 154 148 145 143 139 136 131 133 134 137 143 138 136 141 153 171 175 179 183 176 167 155 172 215 257 263 246 242 240 270 313 356 5 14 17 18 22 24 24 21 18 20 22 28 28 26 29 43 50 45 39 39 36 32 32 27 28 29 31
13 7 5 6 7 6 7 8 11 13 20 38 64 73 84 89 93 105 101 107 94 123 133 140 142 147 143 136 136 137 137 132 131 133 134 138 139 133 134 149 158 175 180 184 181 165 170 168 190 215 240 257 234 238 222 249 317 346 11 17 25 22 24 26 26 24 25 29 21 26 24 21 32 44 48 46 42 35 31 29 32 26 24 27 29
13 7 6 5 4 7 8 13 16 27 33 42 62 109 107 119 122 115 118 122 121 129 127 127 133 138 131 128 132 133 133 130 130 133 133 137 139 128 131 145 166 171 179 190 175 165 175 187 225 222 235 256 245 270 266 325 309 353 18 29 31 38 34 33 31 27 28 27 22 22 13 24 37 48 51 45 33 31 33 29 32 25 20 25 28
13 7 4 4 1 3 8 12 23 37 40 30 36 166 158 130 123 116 114 124 133 128 125 122 135 135 130 131 128 128 131 132 130 133 133 134 130 124 146 156 173 170 185 188 172 172 172 187 209 226 218 232 259 265 300 311 27 36 44 52 41 41 47 40 42 40 41 39 34 31 31 30 36 45 43 34 26 37 39 34 35 28 20 24 28
14 8 4 7 3 3 5 16 29 39 47 57 35 17 124 119 132 106 109 123 131 132 131 128 132 131 129 128 126 129 130 131 132 132 132 135 132 150 159 171 173 162 168 173 159 176 209 208 217 233 237 226 255 274 290 290 261 210 34 65 65 52 58 47 43 42 43 41 38 44 46 55 59 58 42 23 32 53 52 45 41 31 24 23 27
22 14 9 9 3 2 15 23 37 45 56 63 59 40 65 81 121 114 124 127 132 128 126 132 131 131 129 128 127 130 130 129 131 131 136 141 134 152 164 164 171 166 174 187 206 219 221 220 221 229 253 251 237 275 276 281 249 323 67 92 89 87 59 50 42 49 52 50 50 57 62 62 56 46 34 33 51 62 50 47 45 36 29 25 26
12 20 13 1 359 9 33 40 48 49 63 69 77 72 77 100 120 129 122 144 138 131 132 132 131 129 129 128 128 128 129 128 130 136 144 145 145 162 161 172 176 176 186 194 204 213 222 221 222 232 192 222 223 250 265 266 318 339 17 50 73 101 88 76 59 61 62 60 62 68 67 63 53 36 29 39 71 86 71 61 53 47 40 32 27
10 30 21 4 4 24 47 53 51 61 75 81 88 98 93 119 140 151 152 148 136 131 133 132 128 130 128 129 129 129 128 129 134 141 149 150 154 162 168 173 173 190 202 202 201 198 206 215 219 230 238 216 215 227 248 272 308 349 77 59 59 40 79 70 83 80 61 70 64 64 59 51 40 27 13 14 77 100 88 77 68 59 47 37 32
14 32 25 12 20 25 52 55 55 64 83 85 102 117 119 142 150 157 155 154 153 140 140 129 128 129 131 133 128 131 131 134 140 142 149 148 165 177 175 168 191 202 209 220 202 196 198 210 231 238 244 246 220 234 252 298 344 23 16 53 74 68 45 59 70 67 70 65 62 63 48 36 28 17 7 13 58 77 89 94 81 63 54 40 34
21 45 38 14 1 36 72 83 100 97 90 92 103 111 117 130 140 142 140 138 141 141 127 123 127 128 129 137 136 136 138 139 137 138 148 160 170 186 187 184 193 218 218 225 239 208 192 205 240 243 241 258 266 276 256 300 54 36 38 46 36 58 59 54 40 66 74 43 58 55 40 30 29 22 18 27 73 95 74 83 78 71 60 42 35
20 56 67 24 346 31 87 94 103 113 107 103 94 109 117 120 117 120 129 130 131 134 136 132 127 129 134 133 134 141 137 132 132 138 143 156 177 205 202 199 207 218 217 230 204 198 202 211 248 254 254 265 279 254 325 34 52 355 23 58 61 52 22 29 50 42 75 68 60 56 56 56 54 41 31 36 54 64 63 59 70 73 65 49 36
303 303 94 119 6 27 70 97 122 128 117 115 102 111 112 114 117 124 122 123 121 124 126 127 131 138 134 130 140 140 136 134 134 144 156 152 185 218 227 208 201 216 215 219 206 207 207 228 242 256 256 256 285 282 342 353 282 81 20 53 30 19 33 26 16 39 46 65 77 57 47 60 66 51 45 45 44 48 55 52 50 56 58 50 40
291 299 87 117 198 188 153 135 126 134 130 116 120 118 126 122 118 125 127 125 125 128 138 142 140 142 133 142 145 140 141 145 157 170 172 159 207 238 245 201 186 183 205 219 221 221 221 212 215 224 237 255 275 269 287 342 352 47 81 48 38 36 36 30 26 26 31 45 58 58 77 64 50 53 58 55 54 52 60 59 51 55 52 52 46
227 237 208 203 207 202 173 144 127 142 142 124 129 128 132 140 137 135 129 134 140 151 162 155 156 164 147 145 148 149 153 176 193 194 178 223 243 250 264 272 106 162 175 208 210 192 201 212 216 210 243 270 268 293 317 335 356 9 11 7 32 41 39 30 29 29 35 32 49 70 67 74 85 69 62 60 58 62 61 52 48 48 47 51 53
208 229 220 210 212 204 184 148 136 164 154 140 142 133 147 149 144 146 141 146 150 165 171 164 175 182 162 153 158 145 181 187 222 213 282 265 274 274 279 312 257 164 179 234 213 202 208 224 226 230 232 263 304 328 354 3 353 10 15 9 23 25 28 34 52 48 45 56 63 64 63 50 59 79 61 61 71 68 51 47 44 48 45 46 49